sat.trackr.live / text

‹ back to catalog

ONEWEB-0629

NORAD 55170 · 2023-004AG

PAYLOAD ACTIVE UNKNOWN

§ Identity

Operator
Country
UK
Launch date
2023-01-10
Launch site
AFETR
Launch vehicle
Mass (kg)
RCS (m²)

Purposes: comms

External: N2YO · Heavens-Above · Gunter

§ Orbital elements

Epoch: 2026-05-25T02:30:58.571712Z

Period
109.29 min
Inclination
87.9151°
Eccentricity
0.0002093
Mean motion
13.17650317 rev/d
Perigee alt
1,192.1 km
Apogee alt
1,195.3 km
Semi-major
7,571.8 km
B*
4.4837e-5
RAAN
10.4612°
Arg perigee
80.5154°
Mean anomaly
279.6214°
Rev number
16,454

§ Raw data

ONEWEB-06291 55170U 23004AG  26145.10484458  .00000030  00000+0  44837-4 0  99912 55170  87.9151  10.4612 0002093  80.5154 279.6214 13.17650317164547

JSON: /api/v1/satellites/55170 · /tle

For live sub-satellite position, see the globe view (requires WebGL).

§ Visibility from observer

Set your observer location to see the next 7 days of passes ≥ 10°. The values pass through the URL so the page stays shareable.

No JS? Fill the form by hand. The geolocation button needs JavaScript.